Fort Polk, LA

2:24 AM CDT on August 23, 2017 (GMT -0500)
Polk Army Air Field

Weather History for KPOE - July, 2013

Change the Weather History Date:

Sunday, July 21, 2013

  Actual Average Record
Temperature  
Mean Temperature 80 °F -  
Max Temperature 89 °F 90 °F 102 °F (2000)
Min Temperature 71 °F 71 °F 68 °F (2004)
Cooling Degree Days 15    
Growing Degree Days 30 (Base 50)    
Moisture  
Dew Point 72 °F    
Average Humidity 86    
Maximum Humidity 100    
Minimum Humidity 55    
Precipitation  
Precipitation 0.00 in - - ()
Sea Level Pressure  
Sea Level Pressure 29.98 in    
Wind  
Wind Speed 3 mph (South)    
Max Wind Speed 20 mph    
Max Gust Speed 32 mph    
Visibility 7 miles    
Events Fog , Rain , Thunderstorm    
Averages and records for this station are not official NWS values.
T = Trace of Precipitation, MM = Missing Value Source: NWS Daily Summary

Daily Weather History Graph

Daily Weather History Graph

Search for Another Location

Airport or City:

Trip Planner

Search our weather history database for the weather conditions in past years. The results will help you decide how hot, cold, wet, or windy it might be!

Date:

Astronomy

Jul. 21, 2013 Rise Set
Actual Time 6:23 AM CDT 8:14 PM CDT
Civil Twilight 5:56 AM CDT 8:41 PM CDT
Nautical Twilight 5:23 AM CDT 9:14 PM CDT
Astronomical Twilight 4:49 AM CDT 9:48 PM CDT
Moon 7:16 PM CDT (7/21) 5:08 AM CDT (7/21)
Length of Visible Light 14h 45m
Length of Day
13h 51m
Waxing Gibbous, 98% of the Moon is Illuminated
Jul 21
Waxing Gibbous
Jul 22
Full
Jul 29
Last Quarter
Aug 6
New
Aug 14
First Quarter

Hourly Weather History & Observations

Time (CDT) Temp. Heat Index Dew Point Humidity Pressure Visibility Wind Dir Wind Speed Gust Speed Precip Events Conditions
12:55 AM 73.0 °F - 71.1 °F 93% 29.98 in 9.0 mi Calm Calm - N/A   Scattered Clouds
1:55 AM 73.0 °F - 71.1 °F 93% 29.98 in 10.0 mi Calm Calm - N/A   Clear
2:55 AM 73.0 °F - 72.0 °F 96% 29.97 in 9.0 mi Calm Calm - N/A   Clear
3:55 AM 73.0 °F - 71.1 °F 93% 29.96 in 9.0 mi Calm Calm - N/A   Clear
4:42 AM 71.6 °F - 71.6 °F 100% 29.97 in 8.0 mi Calm Calm - N/A   Scattered Clouds
4:55 AM 72.0 °F - 71.1 °F 97% 29.97 in 6.0 mi East 3.5 mph - N/A   Mostly Cloudy
5:20 AM 71.6 °F - 71.6 °F 100% 29.97 in 5.0 mi Calm Calm - N/A   Scattered Clouds
5:24 AM 71.6 °F - 71.6 °F 100% 29.97 in 1.8 mi Calm Calm - N/A   Partly Cloudy
5:33 AM 71.6 °F - 71.6 °F 100% 29.97 in 3.0 mi Calm Calm - N/A   Partly Cloudy
5:37 AM 71.6 °F - 71.6 °F 100% 29.97 in 1.8 mi Calm Calm - N/A   Partly Cloudy
5:39 AM 71.6 °F - 71.6 °F 100% 29.97 in 1.0 mi Calm Calm - N/A   Mist
5:48 AM 71.6 °F - 71.6 °F 100% 29.98 in 2.0 mi Calm Calm - N/A   Partly Cloudy
5:55 AM 71.1 °F - 71.1 °F 100% 29.98 in 6.0 mi Calm Calm - N/A   Partly Cloudy
6:55 AM 72.0 °F - 71.1 °F 97% 29.99 in 4.0 mi Calm Calm - N/A   Clear
7:08 AM 71.6 °F - 71.6 °F 100% 29.98 in 2.5 mi SSE 3.5 mph - N/A   Scattered Clouds
7:12 AM 71.6 °F - 71.6 °F 100% 29.99 in 1.5 mi Calm Calm - N/A   Mostly Cloudy
7:15 AM 71.6 °F - 71.6 °F 100% 29.99 in 1.0 mi Calm Calm - N/A   Mist
7:20 AM 71.6 °F - 71.6 °F 100% 29.99 in 0.5 mi Calm Calm - N/A Fog Fog
7:33 AM 73.4 °F - 71.6 °F 94% 30.00 in 1.0 mi Calm Calm - N/A   Mist
7:35 AM 73.4 °F - 71.6 °F 94% 30.00 in 1.8 mi Calm Calm - N/A   Overcast
7:37 AM 73.4 °F - 71.6 °F 94% 30.00 in 3.0 mi Calm Calm - N/A   Mostly Cloudy
7:51 AM 75.2 °F - 73.4 °F 94% 30.00 in 10.0 mi SSE 3.5 mph - N/A   Scattered Clouds
7:55 AM 75.9 °F - 73.0 °F 91% 30.00 in 10.0 mi SSE 3.5 mph - N/A   Partly Cloudy
8:55 AM 81.0 °F 86.2 °F 73.9 °F 79% 30.01 in 10.0 mi South 6.9 mph - N/A   Partly Cloudy
9:24 AM 80.6 °F 85.4 °F 73.4 °F 79% 30.01 in 10.0 mi South 12.7 mph - N/A   Mostly Cloudy
9:42 AM 80.6 °F 84.6 °F 71.6 °F 74% 29.99 in 10.0 mi Variable 6.9 mph - N/A   Scattered Clouds
9:55 AM 82.0 °F 86.7 °F 72.0 °F 71% 29.98 in 10.0 mi Calm Calm - N/A   Clear
10:55 AM 86.0 °F 91.5 °F 71.1 °F 61% 30.01 in 10.0 mi South 11.5 mph - N/A   Clear
11:55 AM 88.0 °F 94.7 °F 72.0 °F 59% 30.00 in 10.0 mi South 11.5 mph - N/A   Scattered Clouds
12:55 PM 87.1 °F 92.8 °F 71.1 °F 59% 29.99 in 10.0 mi South 12.7 mph - N/A   Partly Cloudy
1:55 PM 89.1 °F 95.0 °F 71.1 °F 55% 29.97 in 10.0 mi South 12.7 mph - N/A   Mostly Cloudy
2:36 PM 84.2 °F 89.6 °F 71.6 °F 66% 29.98 in 10.0 mi South 16.1 mph 26.5 mph N/A Thunderstorm Thunderstorm
2:52 PM 82.4 °F 88.2 °F 73.4 °F 74% 29.97 in 10.0 mi South 18.4 mph 32.2 mph 0.00 in Rain Light Rain
2:55 PM 82.9 °F 88.0 °F 72.0 °F 69% 29.98 in 10.0 mi South 19.6 mph 32.2 mph 0.00 in Rain , Thunderstorm Light Thunderstorms and Rain
3:55 PM 79.0 °F - 73.0 °F 82% 29.99 in 10.0 mi SSW 6.9 mph - 0.00 in Thunderstorm Thunderstorm
4:19 PM 80.6 °F 85.4 °F 73.4 °F 79% 29.99 in 10.0 mi SSW 6.9 mph - 0.00 in Rain Light Rain
4:55 PM 80.1 °F 84.5 °F 73.9 °F 81% 29.98 in 10.0 mi SSW 6.9 mph - 0.00 in Rain Light Rain
5:10 PM 80.6 °F 85.4 °F 73.4 °F 79% 29.96 in 10.0 mi Variable 5.8 mph - 0.00 in Rain Light Rain
5:55 PM 82.9 °F 88.8 °F 73.0 °F 72% 29.95 in 10.0 mi WSW 9.2 mph - 0.00 in   Partly Cloudy
6:55 PM 82.9 °F 88.0 °F 72.0 °F 69% 29.95 in 10.0 mi SSW 4.6 mph - N/A   Partly Cloudy
7:55 PM 81.0 °F 85.8 °F 73.0 °F 77% 29.97 in 10.0 mi South 6.9 mph - N/A   Clear
8:55 PM 78.1 °F - 73.0 °F 84% 29.97 in 10.0 mi South 5.8 mph - N/A   Clear
9:20 PM 77.0 °F - 73.4 °F 89% 29.97 in 10.0 mi South 6.9 mph - N/A   Mostly Cloudy
9:34 PM 77.0 °F - 73.4 °F 89% 29.97 in 10.0 mi South 6.9 mph - N/A   Scattered Clouds
9:55 PM 77.0 °F - 73.0 °F 88% 29.98 in 10.0 mi SSE 6.9 mph - N/A   Clear
10:55 PM 75.9 °F - 73.0 °F 91% 30.00 in 10.0 mi South 6.9 mph - N/A   Clear
11:55 PM 75.9 °F - 73.0 °F 91% 30.01 in 10.0 mi South 5.8 mph - N/A   Clear